• Join FlightAware (Why Join?)
  • Login
  • US Flag 
01:23AM EST


 

Airport Tracker/Info


-or-


 

Live Flight TrackerFlight Track Log ✈ ASQ5745 ✈ 03-Jun-2013 ✈ KIAD - KALB

Flight Track Log - Related Links

Times and Time Zones

All times are in EDT time to prevent confusion due to time zone crossing. See the ASQ5745 flight status page for this flight to view local times or setup timezone preferences in your user account.

Time Position Orientation Groundspeed Altitude Reporting Facility
EDT Latitude Longitude Course Direction KTS MPH feet Rate Location/Type
08:29AM 38.9833 -77.4500 333° Northwest 181 208 2,300  Level Potomac TRACON
08:29AM 39.0333 -77.4833 333° Northwest 228 262 4,500 2,374 Climbing Potomac TRACON
08:32AM 39.1900 -77.5008 355° North 271 312 9,500 2,159 Climbing Washington Center
08:33AM 39.2733 -77.5111 355° North 284 327 11,300 1,714 Climbing Washington Center
08:34AM 39.3669 -77.5164 358° North 307 353 12,900 1,627 Climbing Washington Center
08:35AM 39.4494 -77.5669 335° Northwest 324 373 14,500 1,587 Climbing Washington Center
08:36AM 39.5128 -77.6547 313° West 319 367 16,100 1,600 Climbing Washington Center
08:37AM 39.5778 -77.7456 313° West 331 381 17,700 1,311 Climbing Washington Center
08:38AM 39.6450 -77.8364 314° West 343 395 18,700 1,018 Climbing Washington Center
08:38AM 39.7022 -77.9092 316° Northwest 353 406 19,600 973 Climbing Cleveland Center
08:39AM 39.7733 -78.0061 314° West 381 438 20,500 1,000 Climbing Cleveland Center
08:40AM 39.8464 -78.1036 314° West 381 438 21,600 1,041 Climbing Cleveland Center
08:41AM 39.9131 -78.2067 310° West 381 438 22,600 1,000 Climbing Cleveland Center
08:42AM 39.9883 -78.3150 312° West 376 433 23,600 857 Climbing Cleveland Center
08:43AM 40.0992 -78.3383 351° North 360 414 24,300 605 Climbing Cleveland Center
08:44AM 40.2119 -78.3483 356° North 375 432 24,800 347 Climbing Cleveland Center
08:45AM 40.3311 -78.3606 356° North 399 459 25,000 99 Climbing Cleveland Center
08:46AM 40.4522 -78.3731 356° North 427 491 25,000  Level Cleveland Center
08:47AM 40.5672 -78.3856 355° North 442 509 25,000 450 Level Cleveland Center
08:48AM 40.6883 -78.3981 338° Northwest 442 509 25,900 992 Climbing Cleveland Center
08:49AM 40.8117 -78.4103 356° North 442 509 27,000 550 Climbing Cleveland Center
08:50AM 40.9328 -78.4256 355° North 442 509 27,000  Level Cleveland Center
08:51AM 41.0539 -78.4381 356° North 442 509 27,000  Level Cleveland Center
08:52AM 41.1708 -78.4508 355° North 442 509 27,000  Level Cleveland Center
08:53AM 41.2894 -78.4386 North 437 503 27,000  Level Cleveland Center
08:54AM 41.4133 -78.3708 22° Northeast 428 493 27,000  Level Cleveland Center
08:55AM 41.5247 -78.3089 23° Northeast 423 487 27,000  Level Cleveland Center
08:56AM 41.6361 -78.2494 22° Northeast 423 487 27,000  Level Cleveland Center
08:57AM 41.7433 -78.1897 23° Northeast 423 487 27,000  Level Cleveland Center
08:58AM 41.8547 -78.1300 22° Northeast 429 494 27,000  Level Cleveland Center
08:59AM 41.9681 -78.0697 22° Northeast 429 494 27,000  Level Cleveland Center
09:00AM 42.0747 -78.0011 26° Northeast 429 494 27,000  Level Cleveland Center
09:01AM 42.1297 -77.8533 63° Northeast 402 463 27,000  Level Cleveland Center
09:02AM 42.1719 -77.6972 70° East 414 476 27,000  Level Cleveland Center
09:03AM 42.2136 -77.5411 70° East 425 489 27,000  Level Cleveland Center
09:04AM 42.2553 -77.3794 71° East 436 502 27,000  Level Cleveland Center
09:06AM 42.3369 -77.0725 70° East 459 528 27,000  Level Boston Center
09:07AM 42.3789 -76.9153 70° East 453 521 27,000  Level Boston Center
09:08AM 42.4225 -76.7553 70° East 448 516 27,000  Level Boston Center
09:09AM 42.4619 -76.5947 72° East 448 516 27,000  Level Boston Center
09:10AM 42.4969 -76.4364 73° East 448 516 27,000  Level Boston Center
09:11AM 42.5150 -76.2714 82° East 448 516 27,000  Level Boston Center
09:12AM 42.5606 -76.0936 71° East 448 516 27,000 -454 Level Boston Center
09:13AM 42.6072 -75.9356 68° East 448 516 26,100 -950 Descending Boston Center
09:14AM 42.6581 -75.7689 67° East 455 524 25,100 -1,000 Descending Boston Center
09:15AM 42.7067 -75.6019 68° East 467 537 24,100 -1,008 Descending Boston Center
09:16AM 42.7592 -75.4350 67° East 474 545 23,100 -1,600 Descending Boston Center
09:17AM 42.8114 -75.2619 68° East 474 545 20,900 -2,200 Descending Boston Center
09:18AM 42.8611 -75.1028 67° East 474 545 18,700 -2,250 Descending Boston Center
09:19AM 42.9125 -74.9461 66° East 456 525 16,400 -2,300 Descending Boston Center
09:20AM 42.9553 -74.8061 67° East 442 509 14,100 -2,327 Descending Boston Center
09:21AM 42.9906 -74.7053 64° Northeast 435 501 12,600 -2,200 Descending Boston Center
09:21AM 43.0083 -74.6464 68° East 428 493 11,900 -1,157 Descending Boston Center
09:22AM 43.0506 -74.5172 66° East 411 473 11,000 -550 Descending Boston Center
09:23AM 43.0614 -74.3669 84° East 369 425 10,800 -706 Descending Boston Center
09:24AM 43.0150 -74.2803 126° Southeast 318 366 9,600 -1,750 Descending Boston Center
09:25AM 42.9603 -74.1792 126° Southeast 307 353 7,300 -2,107 Descending Boston Center
09:27AM 42.9033 -74.0811 128° Southeast 294 338 5,000 -1,686 Descending Boston Center
09:27AM 42.8628 -74.0064 127° Southeast 294 338 3,900 -1,101 Descending Boston Center
09:28AM 42.8533 -73.9242 99° East 239 275 3,000 -1,013 Descending Boston Center
09:29AM 42.8558 -73.8958 83° East 229 264 2,600 -1,333 Descending Boston Center